Location: Pedholt
(56.0260°N, 10.2097°E)
Time: 05:13:20
(UTC+00:00)

Vanguard 2 - All Passes

Search period start: 26 July 2021 00:00
Search period end: 05 August 2021 00:00
Orbit: 552 x 2937 km, 32.9° (Epoch: 25 July)

Date Brightness Start Highest point End Pass type
(mag) Time Alt. Az. Time Alt. Az. Time Alt. Az.
26 Jul - 06:54:35 10° S 06:57:19 12° SSE 07:00:27 10° SE daylight
26 Jul - 08:59:47 10° SW 09:04:40 16° S 09:10:45 10° SSE daylight
26 Jul - 11:10:22 10° SSW 11:12:40 11° SSW 11:15:09 10° S daylight
27 Jul - 07:11:32 10° S 07:14:26 12° SSE 07:17:49 10° SE daylight
27 Jul - 09:17:48 10° SW 09:21:54 14° S 09:26:49 10° SSE daylight
28 Jul - 07:28:52 10° SSW 07:31:36 12° S 07:34:46 10° SSE daylight
28 Jul - 09:36:41 10° SSW 09:39:09 11° SSW 09:41:53 10° S daylight
29 Jul - 07:46:41 10° SSW 07:48:48 11° S 07:51:11 10° SSE daylight
